SENTINEL-3A (41335 NORAD) Tracking and Keplerian Element Data

This shows tracking and keplerian element data for the satellite.

Feedback or suggestion? Click here.




ElementValue
Catalog41335
NameSENTINEL-3A
Epoch Orbit12578
Epoch Day198.90199839
Epoch Year2018
RAAN265.6809
Inclination98.6221
Eccentricity0.0001364
Argument of Perigee90.4037
Mean Anonmoly269.7299
Mean Motion14.26739061
Decay Rate-1E-08
L11 41335U 16011A 18198.90199839 -.00000001 00000-0 17770-4 0 9998
L22 41335 98.6221 265.6809 0001364 90.4037 269.7299 14.26739061125785

Live tracking and technical data element details for SENTINEL-3A (NORAD 41335). SENTINEL-3A can be tracked NOW for your location showing map with azimuth and elevation plus other details from your city location.

Track the satellite on the map from your city or location and see movement details for azimuth, elevation, latitude, longitude, range, height, and movement on the map or in text.







IsCatalogInMostPopularTable: catalog: 41335, numindb: 72
Update: records affected: 1



GetName: 41335 SENTINEL-3A

Hit Count: updated at: Sat, 21 Jul 2018 07:39:17 GMT